Weather in Chegem 1-y

Russia / The Kabardino-Balkar Republic     43°36′47″N   43°43′38″E
temp.,
°C
wind,
m/s
gust,
m/s
humid.,
%
clouds,
%
prec.,
mm/h
press.,
hPa
HPBL,
m
23 october, sat
sat2300:00+11sw11650 0.0 102011
03:00+10wsw11640 0.0 102110
06:00+10sw21620 0.0 102111
09:00+14ne10520 0.0 1021159
12:00+17ne21460 0.0 1020532
15:00+18ene21420 0.0 1019691
18:00+13ssw11550 0.0 101910
21:00+12wsw22650 0.0 101911
24 october, sun
sun2400:00+11wsw22690 0.0 101911
03:00+11sw22655 0.0 102012
06:00+10sw116543 0.0 102010
09:00+13ene115593 0.0 1020180
12:00+15ene2254100 0.0 1019622
15:00+15e225485 0.0 1017832
18:00+12sse1167100 0.0 101710
21:00+11sw1170100 0.0 101610
25 october, mon
mon2500:00+11wnw2271100 0.0 101511
03:00+10nw497299 0.0 1017333
06:00+7nnw91375100 0.0 1021730
09:00+5nnw5790100 1.7 1026810
12:00+4nw1595100 3.4 1028559
15:00+4nw2494100 4.7 1029567
18:00+5w1389100 0.5 1030575
21:00+5sw2387100 1.0 1032273
26 october, tue
tue2600:00+4ssw3490100 0.0 1031108
03:00+4wsw228551 0.0 103259
06:00+3sw11876 0.0 103212
09:00+6ne117413 0.0 1033425
12:00+7e2265100 0.0 10311089
15:00+7e226470 0.0 1030773
18:00+6e247590 0.0 1031142
21:00+5sse127618 0.0 103135
27 october, wed
wed2700:00+3ssw11815 0.0 103112
03:00+2sw11855 0.0 103011
06:00+2ssw11863 0.0 103011
09:00+5e22730 0.0 1029323
12:00+9e33600 0.0 1027726
15:00+10e33560 0.0 1025845
18:00+6se11720 0.0 102510
21:00+5w11780 0.0 102410